Simultaneous Nadir Overpasses (SNOs) Predictions

Prediction of SNOs between METOP-A and TERRA Satellite Orbit:

Table of predicted SNOs for the next 14.0 days since TLE Epoch: 4/11/2020
Index Date (METOP-A) Time (METOP-A) Lat,Lon (METOP-A) SZA (METOP-A ) Date (TERRA) Time (TERRA) Lat,Lon (TERRA) SZA (TERRA ) Distance(km) Time Diff (sec)
1 04/11/2020 19:39:29 -81.42, 114.89 104.24 04/11/2020 19:39:37 -81.43, 114.93 104.23 0.76 8
2 04/11/2020 20:30:10 81.42, -77.79 75.75 04/11/2020 20:29:04 81.42, -77.68 75.73 2.03 66
3 04/14/2020 14:23:11 81.42, 13.90 74.78 04/14/2020 14:24:23 81.44, 13.93 74.83 1.50 72
4 04/14/2020 15:13:52 -81.43,-178.88 105.25 04/14/2020 15:13:51 -81.41,-178.92 105.26 1.56 1
5 04/14/2020 16:04:19 81.27, -6.15 75.31 04/14/2020 16:03:11 81.52, -8.80 75.09 52.10 68
6 04/17/2020 09:57:33 81.43, 80.08 73.79 04/17/2020 09:58:36 81.42, 80.01 73.80 1.51 63
7 04/17/2020 10:48:13 -81.42,-112.27 106.20 04/17/2020 10:48:03 -81.42,-112.43 106.22 2.75 10
8 04/20/2020 05:31:55 81.42, 146.64 72.85 04/20/2020 05:32:48 81.44, 146.82 72.91 3.24 53
9 04/20/2020 06:22:36 -81.42, -46.06 107.17 04/20/2020 06:22:16 -81.41, -45.99 107.17 1.57 20
10 04/23/2020 01:06:17 81.42,-146.81 71.94 04/23/2020 01:07:01 81.43,-146.81 71.97 1.48 44




NCC Satellite Simultaneous Nadir Overpasses (SNOs) Prediction Service
